[[{"header":{"parameterUnit":"m.s-1","parameterCategory":1,"la1":30.2991,"la2":30.254,"lo1":-89.0895,"lo2":-89.0444,"dy":0.0017,"dx":0.0017,"nx":28,"ny":28,"refTime":"2025-04-11T03:00:00:Z","depth":0,"parameterNumber":2,"parameterNumberName":"U-component_of_WINDS"},"data":[0,0,0,0,0,0,0,0,0,0,0,0,0,0,0,0,0,0,0,0,0,0,0,0,0,0,0,0,0,0,0,0,0,0,0,0,0,0,0,0,0,0,0,0,0,0,0,0,0,0,0,0,0,0,0,0,0,0,6.1093,6.1094,0,6.1272,6.1274,6.1276,6.1177,6.1172,6.1167,6.1162,6.1353,6.1362,6.1372,0,0,0,0,0,0,0,0,0,0,0,0,0,6.0669,6.0677,6.1092,6.1095,6.1097,6.1272,6.1274,6.1277,6.1178,6.1172,6.1166,6.116,6.135,6.1361,6.1373,0,0,0,0,0,0,0,0,0,0,0,0,0,6.0852,6.068,6.1092,6.1068,6.1068,6.1271,6.1274,6.1277,6.1179,6.1172,6.1164,6.1157,6.1346,6.136,6.1374,6.1613,0,0,6.1419,6.1425,0,0,0,0,0,0,0,0,6.0841,6.0867,6.107,6.107,6.107,6.1194,6.1195,6.139,6.1181,6.1137,6.1162,6.1154,6.1307,6.1324,6.1374,6.1622,6.163,6.142,6.1429,6.1435,6.1439,0,0,0,0,0,0,0,6.0829,6.0859,6.1164,6.1073,6.1073,6.1051,6.1068,6.1231,6.1262,6.114,6.1134,6.1156,6.1305,6.136,6.1378,6.1633,6.1419,6.1432,6.1441,6.1447,6.2086,6.2094,0,0,0,0,0,0,6.0817,6.0849,6.1158,6.1169,6.0935,6.1064,6.1084,6.1162,6.1259,6.1267,6.1162,6.1151,6.1339,6.1361,6.1384,6.167,6.1435,6.1448,6.1457,6.2078,6.2088,6.2097,0,0,0,0,0,0,6.0808,6.0845,6.1151,6.1007,6.1044,6.1079,6.1168,6.117,6.1224,6.1276,6.1281,6.1212,6.1334,6.1364,6.1556,6.1676,6.1455,6.1468,6.2068,6.2081,6.2092,6.2245,0,0,0,0,0,0,6.0796,6.0843,6.0932,6.101,6.1052,6.1319,6.1175,6.1179,6.1249,6.1236,6.1324,6.1332,6.133,6.1535,6.1571,6.1692,6.148,6.2058,6.2074,6.2088,6.2229,6.2261,6.2288,0,0,0,0,0,6.0782,6.097,6.0938,6.0975,6.1165,6.1326,6.135,6.1343,6.1259,6.135,6.1383,6.1329,6.1656,6.1556,6.1595,6.1722,6.205,6.2069,6.2087,6.2216,6.2255,6.2287,0,0,0,0,0,0,6.0907,6.0979,6.0945,6.1163,6.1239,6.1309,6.1424,6.1384,6.1487,6.147,6.1459,6.148,6.168,6.172,6.1607,6.1958,6.184,6.1868,6.1925,6.1962,6.1991,6.1978,6.1492,0,0,0,0,0,6.096,6.1083,6.114,6.1327,6.1366,6.1389,6.1459,6.1446,6.1525,6.1558,6.1604,6.1685,6.1806,6.1886,6.2,6.2234,6.2253,6.2341,6.237,6.2394,6.2418,6.2546,6.2586,6.2158,6.2158,6.2157,0,0,6.1071,6.1126,6.1204,6.1353,6.1411,6.154,6.1417,6.1558,6.1655,6.158,6.1764,6.1802,6.1891,6.2105,6.2202,6.2145,6.254,6.2417,6.2436,6.2448,6.2569,6.2609,6.2645,6.217,6.2168,6.2166,0,0,6.134,6.1392,6.1554,6.1614,6.1701,6.1715,6.1754,6.183,6.1852,6.2036,6.1983,6.2098,6.2306,6.2372,6.2433,6.2726,6.268,6.2763,6.2917,6.3041,6.3075,6.3105,6.3211,6.3249,6.2787,6.2788,6.2788,0,6.1467,6.1658,6.1643,6.1789,6.1857,6.1793,6.1958,6.2017,6.2138,6.2188,6.2121,6.2381,6.2436,6.2666,6.2737,6.2788,6.2834,6.2754,6.3071,6.3101,6.3129,6.3229,6.3269,6.2797,6.2796,6.2795,6.2794,0,6.1811,6.1944,6.2064,6.2181,6.2263,6.2418,6.2428,6.2513,6.2493,6.2514,6.2704,6.2768,6.2894,6.2947,6.293,6.3175,6.3137,6.3071,6.2953,6.3179,6.3274,6.3312,6.2811,6.2807,6.2805,6.2802,0,0,6.2165,6.227,6.2315,6.2367,6.2459,6.2563,6.2715,6.2836,6.291,6.2996,6.3124,6.3302,6.3241,6.3311,6.3301,6.341,6.3639,6.3331,6.3333,6.3387,6.3914,6.3963,6.4008,6.3609,6.3616,6.3622,6.3906,0,6.244,6.2704,6.2695,6.2943,6.3066,6.3007,6.314,6.3212,6.3235,6.3345,6.3372,6.3498,6.3408,6.345,6.3555,6.3589,6.3745,6.3568,6.373,6.3736,6.3711,6.4057,6.411,6.4376,6.3943,6.3949,6.3954,0,6.2796,6.2892,6.3151,6.3225,6.3276,6.3396,6.3506,6.3611,6.3692,6.3701,6.3779,6.3751,6.3907,6.3784,6.4,6.388,6.3946,6.3972,6.3983,6.3998,6.386,6.4084,6.446,6.4501,6.4012,6.4007,6.4003,0,6.303,6.3224,6.3404,6.345,6.354,6.3626,6.3668,6.374,6.3814,6.3911,6.3959,6.4074,6.4138,6.4228,6.4233,6.4142,6.4452,6.4328,6.4466,6.4467,6.4535,6.4531,6.4929,6.4576,6.4576,6.4575,6.4574,0,6.3339,6.35,6.351,6.3621,6.38,6.3789,6.3968,6.4001,6.4067,6.4184,6.414,6.4252,6.4251,6.4366,6.4371,6.455,6.4579,6.4593,6.4592,6.4597,6.4596,6.4641,6.4623,6.4585,6.4583,6.4581,6.4579,0,6.3631,6.3643,6.3836,6.3904,6.3926,6.4055,6.4114,6.4221,6.424,6.439,6.4424,6.4456,6.4588,6.4601,6.4756,6.476,6.4976,6.4956,6.4949,6.4946,6.5083,6.507,6.5525,6.5584,6.5192,6.5196,6.5199,0,6.3828,6.395,6.4031,6.4106,6.4152,6.4273,6.4347,6.4341,6.4421,6.4521,6.4616,6.4744,6.4846,6.5061,6.5099,6.5217,6.5199,6.535,6.5217,6.5218,6.5203,6.5196,6.5209,6.5377,6.5381,6.5385,6.5388,0,6.4176,6.4176,6.4283,6.4394,6.4483,6.457,6.4652,6.4716,6.472,6.4812,6.4946,6.5025,6.5182,6.531,6.5426,6.547,6.5432,6.5429,6.5467,6.5474,6.5465,6.5473,6.502,6.5419,6.5416,6.5413,6.5412,6.5411,6.4427,6.4533,6.4607,6.4728,6.4788,6.4865,6.4969,6.5,6.5111,6.5236,6.5226,6.5375,6.5453,6.5604,6.5658,6.5775,6.5725,6.578,6.5794,6.5808,6.5823,6.5446,6.5796,6.5795,6.5794,6.5794,6.5793,0,6.4774,6.4818,6.493,6.5044,6.514,6.5091,6.5179,6.5263,6.5394,6.5469,6.5569,6.5723,6.5847,6.5894,6.6015,6.61,6.6085,6.6132,6.6127,6.6138,6.586,6.5815,6.6142,6.6142,6.6142,6.6142,6.6142,6.6142,6.4966,6.5143,6.5152,6.5358,6.5401,6.5545,6.5599,6.5671,6.573,6.5903,6.6005,6.6034,6.6098,6.6224,6.6336,6.6346,6.6394,6.6449,6.6452,6.6193,6.6157,6.6124,6.6081,6.6459,6.646,6.672,6.6723,6.6724]},{"header":{"parameterUnit":"m.s-1","parameterCategory":1,"la1":30.2991,"la2":30.254,"lo1":-89.0895,"lo2":-89.0444,"dy":0.0017,"dx":0.0017,"nx":28,"ny":28,"refTime":"2025-04-11T03:00:00:Z","depth":0,"parameterNumber":3,"parameterNumberName":"V-component_of_WINDS"},"data":[0,0,0,0,0,0,0,0,0,0,0,0,0,0,0,0,0,0,0,0,0,0,0,0,0,0,0,0,0,0,0,0,0,0,0,0,0,0,0,0,0,0,0,0,0,0,0,0,0,0,0,0,0,0,0,0,0,0,0.1508,0.1508,0,0.1497,0.1497,0.1496,0.1474,0.1474,0.1474,0.1473,0.1462,0.1462,0.1462,0,0,0,0,0,0,0,0,0,0,0,0,0,0.1512,0.1512,0.1508,0.1508,0.1508,0.1497,0.1497,0.1496,0.1474,0.1474,0.1473,0.1473,0.1461,0.1462,0.1462,0,0,0,0,0,0,0,0,0,0,0,0,0,0.1506,0.1512,0.1508,0.1496,0.1495,0.1497,0.1497,0.1496,0.1475,0.1474,0.1473,0.1473,0.1461,0.1462,0.1462,0.1475,0,0,0.1462,0.1462,0,0,0,0,0,0,0,0,0.1507,0.1506,0.1498,0.1497,0.1495,0.1486,0.1493,0.1489,0.1475,0.1482,0.1473,0.1472,0.147,0.147,0.1469,0.1475,0.1474,0.1462,0.1462,0.1462,0.1462,0,0,0,0,0,0,0,0.1507,0.1506,0.1504,0.1498,0.1496,0.1491,0.1489,0.1493,0.148,0.1481,0.148,0.1479,0.147,0.1469,0.1468,0.1474,0.1462,0.1462,0.1462,0.1462,0.149,0.149,0,0,0,0,0,0,0.1509,0.1507,0.1504,0.1503,0.1499,0.1491,0.1489,0.149,0.148,0.1478,0.1479,0.1478,0.1469,0.1468,0.1468,0.1483,0.1462,0.1462,0.1462,0.1489,0.149,0.1491,0,0,0,0,0,0,0.1509,0.1509,0.1505,0.1505,0.1504,0.1492,0.1492,0.149,0.1489,0.1478,0.1476,0.1481,0.1468,0.1468,0.1473,0.1482,0.1462,0.1463,0.1488,0.1489,0.149,0.1513,0,0,0,0,0,0,0.151,0.1509,0.1515,0.1505,0.1504,0.1511,0.1493,0.149,0.149,0.1487,0.1479,0.1477,0.1468,0.1473,0.1474,0.1482,0.1463,0.1488,0.1489,0.149,0.1512,0.1515,0.1518,0,0,0,0,0,0.151,0.1522,0.1515,0.1515,0.151,0.1511,0.151,0.1499,0.149,0.1495,0.1488,0.1477,0.1481,0.1474,0.1474,0.1483,0.1487,0.1488,0.149,0.151,0.1514,0.1518,0,0,0,0,0,0,0.1533,0.152,0.1513,0.1522,0.1518,0.1507,0.1514,0.1504,0.1502,0.15,0.1487,0.1485,0.1493,0.1488,0.1481,0.1495,0.1482,0.1484,0.1498,0.1501,0.1504,0.1505,0.1463,0,0,0,0,0,0.1539,0.1541,0.153,0.1539,0.1537,0.1526,0.1526,0.1518,0.1513,0.1511,0.1504,0.15,0.15,0.15,0.15,0.1511,0.1508,0.1516,0.1519,0.1522,0.1524,0.1528,0.1532,0.1495,0.1495,0.1495,0,0,0.1552,0.1545,0.1548,0.1544,0.1539,0.1542,0.1525,0.1528,0.1529,0.1511,0.1516,0.1511,0.1505,0.1513,0.1517,0.151,0.1533,0.1524,0.1526,0.1526,0.153,0.1534,0.1537,0.1496,0.1496,0.1496,0,0,0.1577,0.1572,0.1579,0.1575,0.1568,0.156,0.1562,0.1553,0.1549,0.1553,0.154,0.1541,0.1542,0.1538,0.1536,0.1558,0.1548,0.1558,0.1574,0.1579,0.1582,0.1585,0.1592,0.1595,0.156,0.156,0.156,0,0.1594,0.1597,0.1584,0.1588,0.1586,0.157,0.1576,0.1573,0.1567,0.1566,0.1559,0.1558,0.1553,0.156,0.1566,0.1565,0.1566,0.156,0.1583,0.1585,0.1587,0.1594,0.1597,0.1561,0.1561,0.1561,0.1561,0,0.1618,0.162,0.1626,0.162,0.1619,0.1625,0.1612,0.1613,0.1604,0.1597,0.1602,0.1595,0.1592,0.1593,0.1585,0.1599,0.1595,0.1585,0.1572,0.1592,0.1599,0.1601,0.1563,0.1563,0.1562,0.1562,0,0,0.1658,0.1644,0.1646,0.1643,0.1635,0.1636,0.164,0.1637,0.1638,0.1634,0.1637,0.1637,0.1628,0.1626,0.1617,0.1621,0.1639,0.1611,0.1611,0.1617,0.1653,0.1661,0.1664,0.1632,0.1632,0.1633,0.1653,0,0.1681,0.1687,0.1675,0.1685,0.1686,0.167,0.1674,0.1668,0.1662,0.1662,0.1654,0.1654,0.1642,0.1641,0.1644,0.1636,0.1646,0.1634,0.1635,0.1635,0.1637,0.1667,0.1675,0.1695,0.1656,0.1656,0.1657,0,0.1709,0.1706,0.1715,0.1705,0.1705,0.1709,0.1705,0.1705,0.1699,0.1693,0.169,0.168,0.1683,0.167,0.1673,0.1666,0.1665,0.1661,0.1661,0.1661,0.1647,0.1668,0.1702,0.1705,0.1661,0.166,0.166,0,0.1737,0.1735,0.174,0.1738,0.1726,0.1729,0.1725,0.1717,0.1716,0.1713,0.1712,0.1709,0.1707,0.1705,0.1694,0.1685,0.1699,0.1685,0.1694,0.1694,0.1698,0.1698,0.1732,0.1697,0.1697,0.1697,0.1697,0,0.1764,0.177,0.1753,0.1756,0.1762,0.1748,0.1755,0.1749,0.1742,0.1744,0.173,0.1731,0.1716,0.1716,0.1707,0.1711,0.1711,0.1706,0.1704,0.1708,0.1708,0.1707,0.1706,0.1698,0.1698,0.1698,0.1698,0,0.1797,0.1785,0.179,0.1778,0.1775,0.1781,0.1771,0.1773,0.1765,0.1767,0.1766,0.1753,0.1752,0.1741,0.1737,0.1731,0.1739,0.1734,0.1741,0.174,0.175,0.1749,0.1784,0.1788,0.1751,0.1751,0.1752,0,0.1815,0.182,0.1808,0.1808,0.1804,0.1804,0.1802,0.1788,0.1788,0.178,0.1783,0.1781,0.1779,0.1778,0.1768,0.1765,0.176,0.1772,0.1759,0.1763,0.176,0.176,0.176,0.1775,0.1776,0.1776,0.1776,0,0.1849,0.1842,0.1841,0.1837,0.1836,0.1832,0.1828,0.1828,0.1813,0.1813,0.1811,0.1809,0.1805,0.1803,0.1798,0.1793,0.1782,0.178,0.1782,0.1786,0.1791,0.1788,0.1749,0.178,0.1779,0.1779,0.1779,0.1779,0.1875,0.1878,0.187,0.1868,0.1863,0.1859,0.1861,0.1852,0.1851,0.1847,0.1838,0.1838,0.1831,0.1823,0.1819,0.1818,0.1812,0.1815,0.1815,0.1816,0.1818,0.179,0.1817,0.1817,0.1817,0.1817,0.1817,0,0.1907,0.1901,0.19,0.1894,0.1893,0.1882,0.1876,0.1876,0.1876,0.187,0.1867,0.1865,0.1863,0.1853,0.1849,0.185,0.1845,0.185,0.185,0.1849,0.1824,0.1823,0.1854,0.1854,0.1854,0.1854,0.1854,0.1854,0.1924,0.1928,0.1921,0.1923,0.1916,0.1916,0.1914,0.191,0.1905,0.1903,0.1901,0.1894,0.1886,0.1882,0.1879,0.1876,0.1875,0.1881,0.1877,0.1854,0.1851,0.1847,0.1846,0.1881,0.1881,0.1901,0.1901,0.1901]}]]